CW8842 Weather Reports


time (UTC)temp
F
wind
direction
speed
knots
gust
knots
rain 1hr
in
rain 24hr
in
rain mn
in
humidity
%
barometer
mb
20260906233623 75 161 5.2 7.0 0.00 0.00 0.00 34 1016.9
20260906232612 75 163 5.2 7.0 0.00 0.00 0.00 33 1016.9
20260906231622 75 163 4.3 9.6 0.00 0.00 0.00 33 1017.0
20260906230631 75 199 4.3 9.6 0.00 0.00 0.00 34 1017.1
20260906225616 75 183 7.0 12.2 0.00 0.00 0.00 33 1017.2
20260906224626 75 169 7.8 10.4 0.00 0.00 0.00 33 1017.4
20260906223637 75 199 6.1 9.6 0.00 0.00 0.00 32 1017.4
20260906222626 76 159 6.1 8.7 0.00 0.00 0.00 33 1017.4
20260906221620 76 181 7.0 13.0 0.00 0.00 0.00 32 1017.4
20260906220631 76 202 7.0 10.4 0.00 0.00 0.00 31 1017.6
20260906215614 76 217 6.1 14.8 0.00 0.00 0.00 31 1017.6
20260906214622 76 213 4.3 10.4 0.00 0.00 0.00 30 1017.6
20260906213616 76 192 6.1 12.2 0.00 0.00 0.00 32 1017.6
20260906212646 76 168 7.8 16.5 0.00 0.00 0.00 31 1017.7
20260906211637 76 188 9.6 15.6 0.00 0.00 0.00 32 1017.9
20260906210625 77 192 7.0 13.0 0.00 0.00 0.00 32 1017.8
20260906205649 77 157 6.1 13.9 0.00 0.00 0.00 32 1017.7
20260906204622 78 211 10.4 18.2 0.00 0.00 0.00 30 1018.0
20260906203612 78 156 8.7 14.8 0.00 0.00 0.00 30 1018.0
20260906202621 76 198 12.2 20.9 0.00 0.00 0.00 29 1018.1
20260906201615 78 174 11.3 17.4 0.00 0.00 0.00 28 1018.1
20260906200615 78 172 8.7 18.2 0.00 0.00 0.00 28 1018.4
20260906195615 77 196 9.6 17.4 0.00 0.00 0.00 28 1018.7
20260906194626 76 134 8.7 16.5 0.00 0.00 0.00 30 1018.6
20260906193619 76 172 7.8 17.4 0.00 0.00 0.00 30 1019.0
20260906192629 76 164 7.0 10.4 0.00 0.00 0.00 29 1018.8
20260906191620 75 216 4.3 12.2 0.00 0.00 0.00 30 1018.9
20260906190621 77 147 7.0 20.0 0.00 0.00 0.00 29 1019.1
20260906185643 76 202 7.8 18.2 0.00 0.00 0.00 30 1019.1
20260906184617 77 165 7.0 14.8 0.00 0.00 0.00 29 1019.2
20260906183627 75 141 10.4 20.9 0.00 0.00 0.00 29 1019.3
20260906182637 75 219 9.6 18.2 0.00 0.00 0.00 29 1019.5
20260906181647 75 150 11.3 19.1 0.00 0.00 0.00 29 1019.4
20260906180626 75 196 8.7 17.4 0.00 0.00 0.00 29 1019.6
20260906175627 75 202 8.7 14.8 0.00 0.00 0.00 31 1019.8
20260906174617 75 163 9.6 14.8 0.00 0.00 0.00 30 1020.1
20260906173628 74 186 9.6 17.4 0.00 0.00 0.00 31 1020.1
20260906172638 74 155 10.4 20.0 0.00 0.00 0.00 30 1020.3
20260906171630 74 117 11.3 16.5 0.00 0.00 0.00 28 1020.3
20260906170619 73 192 13.0 18.2 0.00 0.00 0.00 29 1020.5
20260906165621 73 198 10.4 16.5 0.00 0.00 0.00 30 1020.4
20260906164613 73 192 10.4 17.4 0.00 0.00 0.00 31 1020.5
20260906163624 72 160 8.7 15.6 0.00 0.00 0.00 31 1020.4
20260906162634 72 159 8.7 16.5 0.00 0.00 0.00 31 1020.4
20260906161622 72 163 9.6 14.8 0.00 0.00 0.00 32 1020.5
20260906160617 72 170 9.6 18.2 0.00 0.00 0.00 33 1020.5
20260906155620 72 140 9.6 14.8 0.00 0.00 0.00 33 1020.6
20260906154631 71 215 9.6 16.5 0.00 0.00 0.00 33 1020.5
20260906153622 70 163 9.6 15.6 0.00 0.00 0.00 34 1020.6
20260906152614 70 213 11.3 19.1 0.00 0.00 0.00 34 1020.7
20260906151624 70 176 8.7 13.0 0.00 0.00 0.00 34 1020.5
20260906150612 70 182 10.4 14.8 0.00 0.00 0.00 33 1020.4
20260906145614 69 194 7.0 10.4 0.00 0.00 0.00 34 1020.3
20260906144629 66 185 3.5 5.2 0.00 0.00 0.00 39 1020.3
20260906143617 64 103 0.9 2.6 0.00 0.00 0.00 39 1020.2
20260906142626 62 176 0.9 4.3 0.00 0.00 0.00 41 1020.1
20260906141616 61 206 2.6 4.3 0.00 0.00 0.00 41 1020.1
20260906140620 60 198 2.6 5.2 0.00 0.00 0.00 41 1020.1
20260906135622 60 190 2.6 4.3 0.00 0.00 0.00 40 1019.9
20260906134612 61 172 3.5 5.2 0.00 0.00 0.00 38 1020.1
20260906133640 61 188 0.9 2.6 0.00 0.00 0.00 38 1019.8
20260906132614 60 116 0.9 4.3 0.00 0.00 0.00 38 1019.7
20260906131624 59 163 0.9 3.5 0.00 0.00 0.00 40 1019.6
20260906130626 59 165 1.7 3.5 0.00 0.00 0.00 39 1019.5
20260906125629 60 157 4.3 6.1 0.00 0.00 0.00 38 1019.7
20260906124624 60 181 3.5 5.2 0.00 0.00 0.00 37 1019.7
20260906123635 60 173 0.9 1.7 0.00 0.00 0.00 38 1019.7
20260906122624 60 155 0.0 0.9 0.00 0.00 0.00 38 1019.7
20260906121616 60 169 0.0 2.6 0.00 0.00 0.00 36 1019.5
20260906120631 60 165 2.6 3.5 0.00 0.00 0.00 36 1019.6
20260906115633 61 162 1.7 3.5 0.00 0.00 0.00 36 1019.6
20260906114623 61 84 0.9 3.5 0.00 0.00 0.00 35 1019.6
20260906113612 61 154 1.7 3.5 0.00 0.00 0.00 35 1019.6
20260906112626 61 165 2.6 5.2 0.00 0.00 0.00 35 1019.6
20260906111617 61 178 4.3 5.2 0.00 0.00 0.00 34 1019.6
20260906110627 61 166 3.5 5.2 0.00 0.00 0.00 35 1019.6
20260906105628 61 186 2.6 4.3 0.00 0.00 0.00 34 1019.7
20260906104622 62 172 1.7 5.2 0.00 0.00 0.00 34 1019.5
20260906103633 62 132 1.7 4.3 0.00 0.00 0.00 33 1019.5
20260906102622 62 163 1.7 6.1 0.00 0.00 0.00 33 1019.5
20260906101631 62 121 1.7 6.1 0.00 0.00 0.00 33 1019.4
20260906100625 62 109 2.6 5.2 0.00 0.00 0.00 33 1019.5
20260906095628 62 114 2.6 5.2 0.00 0.00 0.00 32 1019.3
20260906094618 62 153 0.9 3.5 0.00 0.00 0.00 33 1019.2
20260906093648 63 131 0.9 2.6 0.00 0.00 0.00 32 1019.3
20260906092620 63 180 0.9 3.5 0.00 0.00 0.00 32 1019.3
20260906091631 63 110 0.9 4.3 0.00 0.00 0.00 31 1019.3
20260906090620 63 157 0.9 4.3 0.00 0.00 0.00 31 1019.1
20260906085623 63 157 0.9 1.7 0.00 0.00 0.00 31 1019.1
20260906084637 63 146 0.0 2.6 0.00 0.00 0.00 30 1019.0
20260906083625 64 181 2.6 4.3 0.00 0.00 0.00 30 1019.0
20260906082616 65 158 1.7 3.5 0.00 0.00 0.00 29 1019.0
20260906081626 65 138 2.6 4.3 0.00 0.00 0.00 28 1019.1
20260906080630 65 157 3.5 6.1 0.00 0.00 0.00 28 1019.1
20260906075613 66 142 3.5 7.0 0.00 0.00 0.00 28 1019.2
20260906074624 65 167 3.5 7.8 0.00 0.00 0.00 29 1019.1
20260906073619 65 161 2.6 7.8 0.00 0.00 0.00 29 1019.1
20260906072628 65 147 1.7 5.2 0.00 0.00 0.00 28 1019.2
20260906071619 66 123 2.6 5.2 0.00 0.00 0.00 28 1019.1
20260906070621 66 155 2.6 6.1 0.00 0.00 0.00 28 1019.1
20260906065627 66 149 4.3 6.1 0.00 0.00 0.00 28 1019.1
20260906064617 66 178 4.3 7.0 0.00 0.00 0.00 28 1019.1
20260906063627 66 158 3.5 7.0 0.00 0.00 0.00 28 1019.0
20260906062618 66 175 3.5 5.2 0.00 0.00 0.00 28 1019.0
20260906061631 66 180 2.6 6.1 0.00 0.00 0.00 28 1019.0
20260906060627 68 193 2.6 7.8 0.00 0.00 0.00 27 1018.9
20260906055647 67 168 2.6 6.1 0.00 0.00 0.00 27 1018.8
20260906054617 67 182 3.5 7.0 0.00 0.00 0.00 28 1019.0
20260906053649 67 159 1.7 8.7 0.00 0.00 0.00 28 1019.0
20260906052623 66 179 3.5 6.1 0.00 0.00 0.00 29 1018.9
20260906051614 66 109 3.5 5.2 0.00 0.00 0.00 30 1018.9
20260906050625 66 187 1.7 5.2 0.00 0.00 0.00 29 1019.0
20260906045612 66 144 0.9 4.3 0.00 0.00 0.00 29 1019.0
20260906044623 66 121 0.9 3.5 0.00 0.00 0.00 30 1019.0
20260906043614 65 138 0.9 2.6 0.00 0.00 0.00 30 1019.0
20260906042625 65 164 0.9 4.3 0.00 0.00 0.00 31 1019.0
20260906041616 65 288 0.0 1.7 0.00 0.00 0.00 34 1019.0
20260906040631 65 80 0.0 1.7 0.00 0.00 0.00 30 1018.9
20260906035614 65 47 0.9 2.6 0.00 0.00 0.00 31 1019.0
20260906034645 64 18 1.7 4.3 0.00 0.00 0.00 33 1018.9
20260906033615 65 360 2.6 3.5 0.00 0.00 0.00 31 1018.8
20260906032631 66 9 2.6 4.3 0.00 0.00 0.00 33 1018.7
20260906031621 66 49 1.7 4.3 0.00 0.00 0.00 30 1018.7
20260906030633 67 13 2.6 5.2 0.00 0.00 0.00 31 1018.6
20260906025615 67 63 1.7 4.3 0.00 0.00 0.00 29 1018.6
20260906024630 67 42 2.6 4.3 0.00 0.00 0.00 28 1018.4
20260906023642 68 13 1.7 2.6 0.00 0.00 0.00 28 1018.3
20260906022612 68 38 3.5 4.3 0.00 0.00 0.00 29 1018.2
20260906021623 69 44 2.6 3.5 0.00 0.00 0.00 28 1018.3
20260906020627 70 32 0.9 2.6 0.00 0.00 0.00 28 1018.3
20260906015628 73 360 1.7 2.6 0.00 0.00 0.00 25 1018.2
20260906014618 74 113 0.9 1.7 0.00 0.00 0.00 23 1018.3
20260906013627 75 213 0.0 2.6 0.00 0.00 0.00 21 1018.4
20260906012623 75 224 1.7 2.6 0.00 0.00 0.00 21 1018.5
20260906011613 75 209 0.9 2.6 0.00 0.00 0.00 21 1018.7
20260906005620 76 229 1.7 5.2 0.00 0.00 0.00 21 1018.8
20260906004650 76 165 2.6 8.7 0.00 0.00 0.00 20 1018.8
20260906003623 76 181 4.3 6.1 0.00 0.00 0.00 21 1018.9
20260906002652 77 188 5.2 7.0 0.00 0.00 0.00 20 1018.9
20260906001621 77 193 4.3 7.8 0.00 0.00 0.00 20 1018.8
20260906000631 79 76 0.9 8.7 0.00 0.00 0.00 20 1019.0
20260905235639 79 93 5.2 12.2 0.00 0.00 0.00 19 1019.0
20260905234627 80 202 3.5 12.2 0.00 0.00 0.00 19 1018.9